Hourly Data Report for August 10, 2018

TORONTO CITY
ONTARIO
Current Station Operator: ECCC - MSC

43°40'00.000" N
79°24'00.000" W
112.50 m
6158355
71508
XTO

Download Data

Hourly Data (August 2018)
Hourly Data Report for August 10, 2018
TIME
LST
Temp Definition
°C
Dew Point Definition
°C
Rel Hum Definition
%
Precip. Amount Definition
mm

Wind Dir Definition
10's deg

Wind Spd Definition
km/h
Visibility Definition
km
Stn Press Definition
kPa
Hmdx Definition


Wind Chill Definition


Weather Definition


00:00 22.4 18.4 78 0.0 LegendMM LegendMM   99.88 29   LegendNANA
01:00 21.5 17.7 79 0.0 LegendMM LegendMM   99.90 27   LegendNANA
02:00 20.9 14.4 66 0.0 LegendMM LegendMM   99.93 25   LegendNANA
03:00 20.1 13.8 67 0.0 LegendMM LegendMM   99.98     LegendNANA
04:00 19.2 13.8 71 0.0 LegendMM LegendMM   100.04     LegendNANA
05:00 18.7 13.1 70 0.0 LegendMM LegendMM   100.06     LegendNANA
06:00 18.3 12.9 71 0.0 LegendMM LegendMM   100.11     LegendNANA
07:00 19.5 13.0 66 0.0 LegendMM LegendMM   100.18     LegendNANA
08:00 21.1 12.4 57 0.0 LegendMM LegendMM   100.20     LegendNANA
09:00 22.6 12.0 51 0.0 LegendMM LegendMM   100.20 25   LegendNANA
10:00 23.7 9.6 41 0.0 LegendMM LegendMM   100.22 25   LegendNANA
11:00 24.1 9.7 40 0.0 LegendMM LegendMM   100.22 25   LegendNANA
12:00 24.1 9.5 40 0.0 LegendMM LegendMM   100.23 25   LegendNANA
13:00 24.0 10.0 41 0.0 LegendMM LegendMM   100.21 25   LegendNANA
14:00 24.4 9.8 40 0.0 LegendMM LegendMM   100.17 26   LegendNANA
15:00 24.6 10.5 41 0.0 LegendMM LegendMM   100.11 26   LegendNANA
16:00 24.4 10.7 42 0.0 LegendMM LegendMM   100.08 26   LegendNANA
17:00 23.6 10.7 44 0.0 LegendMM LegendMM   100.04 25   LegendNANA
18:00 23.2 11.2 47 0.0 LegendMM LegendMM   100.05 25   LegendNANA
19:00 22.9 10.9 46 0.0 LegendMM LegendMM   100.03 25   LegendNANA
20:00 22.2 11.3 50 0.0 LegendMM LegendMM   100.07     LegendNANA
21:00 21.8 11.3 51 0.0 LegendMM LegendMM   100.09     LegendNANA
22:00 20.4 12.1 59 0.0 LegendMM LegendMM   100.09     LegendNANA
23:00 20.0 12.7 63 0.0 LegendMM LegendMM   100.11     LegendNANA

Notes on Data Quality.

Legend

  • E = Estimated
  • M = Missing
  • NA = Not Available*
  • [empty] = Indicates an unobserved value
Date modified: